Home > Weather > New Westminster > Past weeks

Flag for Canada Weather for the Past 2 Weeks in New Westminster, British Columbia, Canada

Now
62 °F

Refreshingly cool.


Feels Like: 62 °F
Forecast: 43 / 64 °F
Wind: 2 mph from Northwest

Location: P. Meadows Coastal Station

Current Time: Apr 30, 2016 at 12:56:41 PM

Latest Report: Apr 30, 2016 at 12:00 PM


Visibility: N/A

Pressure: 30.36 "Hg

Humidity: 56%

Dew Point: 46 °F

Location of New WestminsterLocation

Historic Weather in New Westminster — Graph

°F

New Westminster Temperature Yesterday

Maximum temperature yesterday: 63 °F (at 6:00 PM)
Minimum temperature yesterday: 50 °F (at 6:00 AM)
Average temperature yesterday: 55 °F

High & Low Weather Summary for the Past Weeks

 TemperatureHumidityPressure
High85 °F (Apr 18, 4:00 PM)98% (Apr 16, 2:00 AM)30.37 "Hg (Apr 16, 2:00 AM)
Low-17 °F (Apr 20, 5:00 AM)20% (Apr 18, 3:00 PM)29.59 "Hg (Apr 22, 5:00 AM)
Average55 °F70%30.06 "Hg
* Reported Apr 15 11:00 AM — Apr 30 11:00 AM, New Westminster, Weather by CustomWeather, © 2016

Note: Actual official high and low records may vary slightly from our data, if they occured in-between our weather recording intervals... More about our weather records

Advertising

New Westminster Weather History for the Previous 24 Hours

Scroll right to see more
 ConditionsComfort  
Time TempWeatherWind HumidityBarometerVisibility
11:00 AM
Sat, Apr 30
59 °FCool.2 mph61%30.37 "HgN/A
10:00 AM56 °FCool.2 mph70%30.37 "HgN/A
9:00 AM53 °FCool.1 mph83%30.37 "HgN/A
8:00 AM50 °FCool.No wind87%30.37 "HgN/A
7:00 AM45 °FQuite cool.No wind93%30.35 "HgN/A
6:00 AM42 °FQuite cool.No wind86%30.33 "HgN/A
5:00 AM43 °FQuite cool.No wind92%30.31 "HgN/A
4:00 AM44 °FQuite cool.No wind92%30.30 "HgN/A
3:00 AM45 °FQuite cool.No wind90%30.28 "HgN/A
2:00 AM45 °FCool.2 mph90%30.25 "HgN/A
1:00 AM47 °FCool.2 mph87%30.24 "HgN/A
12:00 AM46 °FCool.1 mph86%30.23 "HgN/A
11:00 PM
Fri, Apr 29
50 °FCool.1 mph83%30.21 "HgN/A
10:00 PM51 °FCool.1 mph69%30.19 "HgN/A
9:00 PM56 °FRefreshingly cool.2 mph52%30.17 "HgN/A
8:00 PM58 °FRefreshingly cool.2 mph54%30.14 "HgN/A
7:00 PM61 °FRefreshingly cool.5 mph48%30.11 "HgN/A
6:00 PM63 °FMild.3 mph56%30.10 "HgN/A
5:00 PM62 °FMild.7 mph61%30.09 "HgN/A
4:00 PM62 °FRefreshingly cool.3 mph58%30.09 "HgN/A
3:00 PM62 °FCool.3 mph62%30.09 "HgN/A
2:00 PM59 °FCool.2 mph61%30.08 "HgN/A
1:00 PM58 °FCool.3 mph69%30.08 "HgN/A
12:00 PM56 °FCool.3 mph69%30.08 "HgN/A
Weather by CustomWeather, © 2016

See weather overviewHow to use our weather pages